Bennington, VT

2:22 AM EDT on July 23, 2017 (GMT -0400)
Morse State

Weather History for KDDH - July, 2013

Change the Weather History Date:

Thursday, July 11, 2013

  Actual Average Record
Temperature  
Mean Temperature 72 °F 68 °F  
Max Temperature 80 °F 80 °F 88 °F (2011)
Min Temperature 63 °F 57 °F 42 °F (2002)
Degree Days  
Heating Degree Days 0 1  
Month to date heating degree days 0 11  
Since 1 June heating degree days 100 108  
Since 1 July heating degree days 0 11  
Cooling Degree Days 7 4  
Month to date cooling degree days 124 43  
Year to date cooling degree days 254 115  
Since 1 June cooling degree days 222 101  
Growing Degree Days 23 (Base 50)    
Moisture  
Dew Point 65 °F    
Average Humidity 74    
Maximum Humidity 97    
Minimum Humidity 51    
Precipitation  
Precipitation T in 0.15 in 0.93 in (2003)
Month to date precipitation 2.30 1.49  
Year to date precipitation 24.06 20.69  
Sea Level Pressure  
Sea Level Pressure 29.85 in    
Wind  
Wind Speed 3 mph (West)    
Max Wind Speed 12 mph    
Max Gust Speed 17 mph    
Visibility 7 miles    
Events Rain    
T = Trace of Precipitation, MM = Missing Value Source: NWS Daily Summary

Daily Weather History Graph

Daily Weather History Graph

Search for Another Location

Airport or City:

Trip Planner

Search our weather history database for the weather conditions in past years. The results will help you decide how hot, cold, wet, or windy it might be!

Date:

Astronomy

Jul. 11, 2013 Rise Set
Actual Time 5:24 AM EDT 8:31 PM EDT
Civil Twilight 4:50 AM EDT 9:06 PM EDT
Nautical Twilight 4:06 AM EDT 9:50 PM EDT
Astronomical Twilight 3:13 AM EDT 10:42 PM EDT
Moon 8:46 AM EDT (7/11) 10:04 PM EDT (7/11)
Length of Visible Light 16h 15m
Length of Day
15h 07m
Waxing Crescent, 10% of the Moon is Illuminated
Jul 11
Waxing Crescent
Jul 15
First Quarter
Jul 22
Full
Jul 29
Last Quarter
Aug 6
New

Hourly Weather History & Observations

Time (EDT) Temp. Heat Index Dew Point Humidity Pressure Visibility Wind Dir Wind Speed Gust Speed Precip Events Conditions
12:39 AM 69.8 °F - 68.0 °F 94% 29.80 in 1.2 mi North 3.5 mph - N/A   Scattered Clouds
12:44 AM 69.8 °F - 68.0 °F 94% 29.80 in 3.0 mi Variable 3.5 mph - N/A   Partly Cloudy
12:54 AM 69.1 °F - 68.0 °F 96% 29.78 in 3.0 mi Calm Calm - N/A   Partly Cloudy
1:12 AM 69.8 °F - 68.0 °F 94% 29.79 in 1.8 mi Calm Calm - N/A   Clear
1:28 AM 68.0 °F - 66.2 °F 94% 29.79 in 2.0 mi Calm Calm - N/A   Partly Cloudy
1:38 AM 68.0 °F - 66.2 °F 94% 29.79 in 3.0 mi Calm Calm - N/A   Partly Cloudy
1:54 AM 69.1 °F - 66.9 °F 93% 29.78 in 2.5 mi Calm Calm - N/A   Clear
2:07 AM 68.0 °F - 66.2 °F 94% 29.80 in 1.2 mi Calm Calm - N/A   Clear
2:23 AM 69.8 °F - 66.2 °F 88% 29.80 in 3.0 mi Calm Calm - N/A   Clear
2:54 AM 69.1 °F - 68.0 °F 96% 29.78 in 4.0 mi Calm Calm - N/A   Clear
3:13 AM 69.8 °F - 68.0 °F 94% 29.80 in 2.5 mi Calm Calm - N/A   Partly Cloudy
3:27 AM 69.8 °F - 66.2 °F 88% 29.80 in 4.0 mi Calm Calm - N/A   Partly Cloudy
3:54 AM 70.0 °F - 68.0 °F 93% 29.80 in 5.0 mi SW 4.6 mph - N/A   Clear
4:54 AM 72.0 °F - 68.0 °F 87% 29.81 in 8.0 mi SW 3.5 mph - N/A   Clear
5:54 AM 73.0 °F - 66.9 °F 81% 29.83 in 10.0 mi Variable 3.5 mph - N/A   Partly Cloudy
6:54 AM 72.0 °F - 66.9 °F 84% 29.84 in 10.0 mi South 3.5 mph - N/A   Scattered Clouds
7:52 AM 71.6 °F - 66.2 °F 83% 29.87 in 10.0 mi Calm Calm - 0.00 in Rain Light Rain
7:54 AM 71.1 °F - 66.9 °F 87% 29.86 in 10.0 mi Calm Calm - 0.00 in Rain Light Rain
8:32 AM 71.6 °F - 66.2 °F 83% 29.87 in 10.0 mi WSW 4.6 mph - 0.00 in   Scattered Clouds
8:54 AM 72.0 °F - 66.0 °F 81% 29.86 in 10.0 mi WSW 6.9 mph - 0.00 in   Partly Cloudy
9:28 AM 71.6 °F - 64.4 °F 78% 29.87 in 10.0 mi WNW 5.8 mph - N/A   Mostly Cloudy
9:54 AM 73.0 °F - 66.0 °F 79% 29.87 in 10.0 mi Variable 3.5 mph - N/A   Mostly Cloudy
10:42 AM 73.4 °F - 64.4 °F 73% 29.89 in 10.0 mi Variable 5.8 mph - N/A   Mostly Cloudy
10:54 AM 73.0 °F - 64.0 °F 73% 29.88 in 10.0 mi West 8.1 mph - N/A   Partly Cloudy
11:54 AM 75.9 °F - 64.9 °F 69% 29.88 in 10.0 mi Calm Calm - N/A   Mostly Cloudy
12:54 PM 75.9 °F - 63.0 °F 64% 29.88 in 10.0 mi West 5.8 mph - N/A   Mostly Cloudy
1:54 PM 77.0 °F - 63.0 °F 62% 29.88 in 10.0 mi West 5.8 mph - N/A   Scattered Clouds
2:54 PM 77.0 °F - 61.0 °F 58% 29.88 in 10.0 mi Variable 4.6 mph - N/A   Mostly Cloudy
3:54 PM 79.0 °F - 63.0 °F 58% 29.88 in 10.0 mi Variable 5.8 mph - N/A   Clear
4:54 PM 80.1 °F 81.1 °F 61.0 °F 52% 29.88 in 10.0 mi Calm Calm - N/A   Clear
5:54 PM 79.0 °F - 60.1 °F 52% 29.88 in 10.0 mi Calm Calm - N/A   Clear
6:54 PM 77.0 °F - 62.1 °F 60% 29.90 in 10.0 mi West 3.5 mph - N/A   Clear
7:54 PM 73.9 °F - 63.0 °F 68% 29.92 in 10.0 mi NNW 5.8 mph - N/A   Scattered Clouds
8:54 PM 69.1 °F - 63.0 °F 81% 29.95 in 9.0 mi Calm Calm - N/A   Mostly Cloudy
9:54 PM 68.0 °F - 60.1 °F 76% 29.97 in 10.0 mi Calm Calm - 0.00 in   Partly Cloudy
10:54 PM 66.9 °F - 57.9 °F 73% 29.98 in 10.0 mi Calm Calm - N/A   Scattered Clouds
11:54 PM 68.0 °F - 57.0 °F 68% 29.99 in 10.0 mi Calm Calm - N/A   Overcast